This is the latest recevied weather packets stored in our database for station/object KF6GPE. If no packets are shown the sender has not sent any weather packets the latest 1 day(s).
| Time | Temp. | Humidity | Pressure | Rain* | Wind** | Luminosity | Snow |
|---|---|---|---|---|---|---|---|
| 1778034603 | 12.78° C | 85% | 989.3 hPa | 0 mm | 0 m/s | 1000 W/m² | - |
| 1778034003 | 13.33° C | 86% | 989.3 hPa | 0 mm | 0.45 m/s, 224° | 1000 W/m² | - |
| 1778033402 | 13.33° C | 85% | 989.4 hPa | 0 mm | 0 m/s | 1001 W/m² | - |
| 1778032803 | 13.33° C | 85% | 989.5 hPa | 0 mm | 0.45 m/s, 145° | 1001 W/m² | - |
| 1778032203 | 13.33° C | 85% | 989.4 hPa | 0 mm | 0 m/s | 1001 W/m² | - |
| 1778031602 | 13.33° C | 84% | 989.3 hPa | 0 mm | 0.89 m/s, 161° | 1001 W/m² | - |
| 1778031003 | 13.33° C | 83% | 989.3 hPa | 0 mm | 0.45 m/s, 155° | 1002 W/m² | - |
| 1778030403 | 13.33° C | 83% | 989.2 hPa | 0 mm | 0 m/s | 1001 W/m² | - |
| 1778029802 | 13.33° C | 83% | 989.2 hPa | 0 mm | 0.45 m/s, 154° | 1001 W/m² | - |
| 1778029203 | 13.33° C | 82% | 989.2 hPa | 0 mm | 0.45 m/s, 174° | 1001 W/m² | - |
| 1778028603 | 13.89° C | 82% | 989.1 hPa | 0 mm | 0.89 m/s, 141° | 1001 W/m² | - |
| 1778028002 | 13.89° C | 82% | 989.1 hPa | 0 mm | 0.45 m/s, 118° | 1002 W/m² | - |
| 1778027403 | 13.89° C | 81% | 989 hPa | 0 mm | 0.45 m/s, 156° | 1002 W/m² | - |
| 1778026803 | 14.44° C | 80% | 988.9 hPa | 0 mm | 0.89 m/s, 150° | 1003 W/m² | - |
| 1778026203 | 14.44° C | 79% | 988.8 hPa | 0 mm | 0.45 m/s, 190° | 1003 W/m² | - |
| 1778025602 | 14.44° C | 78% | 988.7 hPa | 0 mm | 0.45 m/s, 200° | 1004 W/m² | - |
| 1778025003 | 14.44° C | 77% | 988.7 hPa | 0 mm | 0.89 m/s, 136° | 1005 W/m² | - |
| 1778024403 | 14.44° C | 77% | 988.7 hPa | 0 mm | 0.45 m/s, 174° | 1005 W/m² | - |
| 1778023803 | 14.44° C | 78% | 988.6 hPa | 0 mm | 0.45 m/s, 156° | 1006 W/m² | - |
| 1778023203 | 14.44° C | 79% | 988.7 hPa | 0 mm | 0.45 m/s, 137° | 1009 W/m² | - |
| 1778022604 | 14.44° C | 79% | 988.8 hPa | 0 mm | 0.45 m/s, 122° | 1009 W/m² | - |
| 1778022003 | 14.44° C | 79% | 988.8 hPa | 0 mm | 0 m/s | 1008 W/m² | - |
| 1778021402 | 14.44° C | 79% | 988.9 hPa | 0 mm | 0.45 m/s, 142° | 1008 W/m² | - |
| 1778020803 | 13.89° C | 79% | 988.9 hPa | 0 mm | 0.45 m/s, 140° | 1008 W/m² | - |
| 1778020203 | 14.44° C | 79% | 989 hPa | 0 mm | 0.45 m/s, 131° | 1005 W/m² | - |
* Rain latest hour (hover to see other rain measurements)
** Current wind speed in m/s (hover to see current wind gust speed)